Terminal Aerodrome Forecast
Issued by NWS Wilmington, OH

Current Version | Previous Version | Graphics & Text | Print | Product List | Glossary On
Versions: 1 2 3 4 5 6 7 8 9 10 11 12 13
881
FTUS41 KILN 212006 AAA
TAFCMH
TAF AMD
KCMH 212006Z 2120/2218 34011KT 2SM -SHRA BR SCT009 OVC015
     FM212100 35011KT P6SM VCSH SCT020 OVC045
     FM220100 34004KT P6SM BKN090
     FM220900 01004KT P6SM SCT080
     FM221700 33010G18KT P6SM VCSH BKN060=

USA.gov is the U.S. government's official web portal to all federal, state and local government web resources and services.